Device Time, G(x), G(y), G(z), G(calibrated), Engine RPM(rpm),Horsepower (At the wheels)(hp),IgnCorrCyl1(°),Intake Air Temperature(°F),Timing Advance(°),Torque(ft-lb),Turbo Boost & Vacuum Gauge(psi),Turbocharger Wastegate %(%)
03-Oct-2022 12:53:30.463,-1.64699996,11.04199982,1.58899999,0.16850764,3459,29.39590073,-,68,27.5,45.03712845,1.01526415,0
03-Oct-2022 12:53:30.561,-1.64699996,11.04199982,1.58899999,0.16850764,3459,29.39590073,-,68,24,45.03712845,1.01526415,0
03-Oct-2022 12:53:30.661,-1.64699996,11.04199982,1.58899999,0.16850764,3506.5,29.39590073,0,68,24,45.03712845,7.54196215,44.53125
03-Oct-2022 12:53:30.761,-1.64699996,11.04199982,1.58899999,0.16850764,3506.5,29.39590073,0,66.2,13.5,45.03712845,7.54196215,44.53125
03-Oct-2022 12:53:30.862,-1.64699996,11.04199982,1.58899999,0.16850764,3573,29.39590073,0,66.2,13.5,45.03712845,16.82437706,65.625
03-Oct-2022 12:53:30.961,-1.64699996,11.04199982,1.58899999,0.16850764,3573,29.39590073,0,66.2,9.5,45.03712845,16.82437706,65.625
03-Oct-2022 12:53:31.061,-1.64699996,11.04199982,1.58899999,0.16850764,3638.5,29.39590073,0,66.2,9.5,45.03712845,21.46558571,76.5625
03-Oct-2022 12:53:31.161,-1.64699996,11.04199982,1.58899999,0.16850764,3638.5,29.39590073,0,66.2,6.5,45.03712845,21.46558571,83.59375
03-Oct-2022 12:53:31.261,-1.64699996,11.04199982,1.58899999,0.16850764,3701,116.8811264,0,66.2,6.5,165.8631897,22.48085022,83.59375
03-Oct-2022 12:53:31.361,-1.64699996,11.04199982,1.58899999,0.16850764,3701,116.8811264,0,66.2,6.5,165.8631897,22.48085022,87.5
03-Oct-2022 12:53:31.461,-1.64699996,11.04199982,1.58899999,0.16850764,3771.5,116.8811264,0,66.2,6.5,165.8631897,22.48085022,87.5
03-Oct-2022 12:53:31.561,-1.64699996,11.04199982,1.58899999,0.16850764,3771.5,116.8811264,0,66.2,6.5,165.8631897,22.48085022,88.28125
03-Oct-2022 12:53:31.661,-1.64699996,11.04199982,1.58899999,0.16850764,3856.75,116.8811264,0,66.2,7,165.8631897,22.48085022,88.28125
03-Oct-2022 12:53:31.761,-1.64699996,11.04199982,1.58899999,0.16850764,3921.5,116.8811264,0,66.2,7,165.8631897,22.48085022,89.0625
03-Oct-2022 12:53:31.861,-1.64699996,11.04199982,1.58899999,0.16850764,3921.5,116.8811264,0,66.2,7,165.8631897,22.48085022,89.0625
03-Oct-2022 12:53:31.960,-1.64699996,11.04199982,1.58899999,0.16850764,4001,116.8811264,0,66.2,7,165.8631897,22.48085022,88.28125
03-Oct-2022 12:53:32.061,-1.64699996,11.04199982,1.58899999,0.16850764,4001,116.8811264,0,66.2,7.5,165.8631897,22.48085022,88.28125
03-Oct-2022 12:53:32.161,-1.64699996,11.04199982,1.58899999,0.16850764,4076.5,116.8811264,0,66.2,7.5,165.8631897,22.48085022,89.84375
03-Oct-2022 12:53:32.261,-1.64699996,11.04199982,1.58899999,0.16850764,4076.5,116.8811264,0,66.2,7.5,165.8631897,22.48085022,89.84375
03-Oct-2022 12:53:32.361,-1.64699996,11.04199982,1.58899999,0.16850764,4148,205.57267761,0,66.2,7.5,260.28634644,22.33581161,89.84375
03-Oct-2022 12:53:32.461,-1.64699996,11.04199982,1.58899999,0.16850764,4148,205.57267761,0,66.2,7.5,260.28634644,22.33581161,89.84375
03-Oct-2022 12:53:32.560,-1.64699996,11.04199982,1.58899999,0.16850764,4206.75,205.57267761,0,66.2,8,260.28634644,22.19077301,89.84375
03-Oct-2022 12:53:32.660,-1.64699996,11.04199982,1.58899999,0.16850764,4206.75,205.57267761,0,66.2,8,260.28634644,22.48085022,91.40625
03-Oct-2022 12:53:32.761,-1.64699996,11.04199982,1.58899999,0.16850764,4265.75,205.57267761,0,66.2,8,260.28634644,22.48085022,91.40625
03-Oct-2022 12:53:32.861,-1.64699996,11.04199982,1.58899999,0.16850764,4325.25,205.57267761,0,66.2,8,260.28634644,21.46558571,92.1875
03-Oct-2022 12:53:32.961,-1.64699996,11.04199982,1.58899999,0.16850764,4325.25,205.57267761,0,66.2,8.5,260.28634644,21.46558571,92.1875
03-Oct-2022 12:53:33.061,-1.64699996,11.04199982,1.58899999,0.16850764,4387.75,205.57267761,0,66.2,8.5,260.28634644,20.7403965,92.96875
03-Oct-2022 12:53:33.161,-1.64699996,11.04199982,1.58899999,0.16850764,4387.75,205.57267761,0,66.2,8.5,260.28634644,20.7403965,93.75
03-Oct-2022 12:53:33.261,-1.64699996,11.04199982,1.58899999,0.16850764,4452.5,205.57267761,0,66.2,8.5,260.28634644,22.19077301,93.75
03-Oct-2022 12:53:33.361,-1.64699996,11.04199982,1.58899999,0.16850764,4452.5,205.57267761,0,68,8.5,260.28634644,22.19077301,93.75
03-Oct-2022 12:53:33.461,-1.64699996,11.04199982,1.58899999,0.16850764,4526.75,206.46647644,0,68,8.5,239.54534912,20.7403965,93.75
03-Oct-2022 12:53:33.561,-1.64699996,11.04199982,1.58899999,0.16850764,4526.75,206.46647644,0,68,9,239.54534912,20.7403965,95.3125
03-Oct-2022 12:53:33.661,-1.64699996,11.04199982,1.58899999,0.16850764,4586.25,206.46647644,0,68,9,239.54534912,21.75566101,95.3125
03-Oct-2022 12:53:33.761,-1.64699996,11.04199982,1.58899999,0.16850764,4586.25,206.46647644,0,68,7.5,239.54534912,20.01520729,96.09375
03-Oct-2022 12:53:33.861,-1.64699996,11.04199982,1.58899999,0.16850764,4631.25,206.46647644,0,68,7.5,239.54534912,20.01520729,96.09375
03-Oct-2022 12:53:33.961,-1.64699996,11.04199982,1.58899999,0.16850764,4631.25,206.46647644,0,68,7.5,239.54534912,19.87017059,96.875
03-Oct-2022 12:53:34.060,-1.64699996,11.04199982,1.58899999,0.16850764,4681.25,206.46647644,0,68,7.5,239.54534912,19.87017059,96.875
03-Oct-2022 12:53:34.161,-1.64699996,11.04199982,1.58899999,0.16850764,4749.5,206.46647644,0,68,7.5,239.54534912,20.01520729,96.09375
03-Oct-2022 12:53:34.260,-1.64699996,11.04199982,1.58899999,0.16850764,4749.5,206.46647644,0,68,7.5,239.54534912,20.01520729,96.09375
03-Oct-2022 12:53:34.361,-1.64699996,11.04199982,1.58899999,0.16850764,4801.75,206.46647644,0,68,7.5,239.54534912,19.43505669,95.3125
03-Oct-2022 12:53:34.461,-1.64699996,11.04199982,1.58899999,0.16850764,4801.75,206.46647644,0,68,7.5,239.54534912,19.43505669,95.3125
03-Oct-2022 12:53:34.561,-1.64699996,11.04199982,1.58899999,0.16850764,4851.75,208.22096252,0,68,7.5,225.39836121,20.30528259,95.3125
03-Oct-2022 12:53:34.661,-1.64699996,11.04199982,1.58899999,0.16850764,4851.75,208.22096252,0,68,7.5,225.39836121,20.30528259,94.53125
03-Oct-2022 12:53:34.761,-1.64699996,11.04199982,1.58899999,0.16850764,4913.5,208.22096252,0,68,7.5,225.39836121,19.72513199,94.53125
03-Oct-2022 12:53:34.861,-1.64699996,11.04199982,1.58899999,0.16850764,4913.5,208.22096252,0,68,7.5,225.39836121,19.72513199,92.96875
03-Oct-2022 12:53:34.961,-1.64699996,11.04199982,1.58899999,0.16850764,4969.5,208.22096252,0,68,8,225.39836121,19.72513199,92.96875
03-Oct-2022 12:53:35.061,-1.64699996,11.04199982,1.58899999,0.16850764,4969.5,208.22096252,0,68,8,225.39836121,20.30528259,89.84375
03-Oct-2022 12:53:35.161,-1.64699996,11.04199982,1.58899999,0.16850764,5014,208.22096252,0,68,8,225.39836121,20.30528259,89.84375
03-Oct-2022 12:53:35.261,-1.64699996,11.04199982,1.58899999,0.16850764,5053.5,208.22096252,0,68,8,225.39836121,20.30528259,88.28125
03-Oct-2022 12:53:35.361,-1.64699996,11.04199982,1.58899999,0.16850764,5053.5,208.22096252,0,68,8,225.39836121,20.30528259,90.625
03-Oct-2022 12:53:35.460,-1.64699996,11.04199982,1.58899999,0.16850764,5105.25,208.22096252,0,68,8,225.39836121,18.85490608,90.625
03-Oct-2022 12:53:35.560,-1.64699996,11.04199982,1.58899999,0.16850764,5148.75,208.22096252,0,68,8,225.39836121,19.72513199,91.40625
03-Oct-2022 12:53:35.660,-1.64699996,11.04199982,1.58899999,0.16850764,5148.75,181.41470337,0,68,8,185.0526886,19.72513199,91.40625
03-Oct-2022 12:53:35.760,-1.64699996,11.04199982,1.58899999,0.16850764,5184.25,181.41470337,0,68,8,185.0526886,19.58009529,91.40625
03-Oct-2022 12:53:35.860,-1.64699996,11.04199982,1.58899999,0.16850764,5184.25,181.41470337,0,68,8.5,185.0526886,19.58009529,92.1875
03-Oct-2022 12:53:35.961,-1.64699996,11.04199982,1.58899999,0.16850764,5226.75,181.41470337,0,68,8.5,185.0526886,18.56483078,92.1875
03-Oct-2022 12:53:36.061,-1.64699996,11.04199982,1.58899999,0.16850764,5226.75,181.41470337,0,68,8.5,185.0526886,18.56483078,86.71875
03-Oct-2022 12:53:36.161,-1.64699996,11.04199982,1.58899999,0.16850764,5287.5,181.41470337,0,68,9.5,185.0526886,17.54956627,86.71875
03-Oct-2022 12:53:36.261,-1.64699996,11.04199982,1.58899999,0.16850764,5315.25,181.41470337,0,68,9.5,185.0526886,18.27475548,79.6875
03-Oct-2022 12:53:36.361,-1.64699996,11.04199982,1.58899999,0.16850764,5315.25,181.41470337,0,68,9.5,185.0526886,18.27475548,79.6875
03-Oct-2022 12:53:36.461,-1.64699996,11.04199982,1.58899999,0.16850764,5334.75,181.41470337,0,68,9.5,185.0526886,14.50377369,60.9375
03-Oct-2022 12:53:36.561,-1.64699996,11.04199982,1.58899999,0.16850764,5334.75,181.41470337,0,68,11.5,185.0526886,-0.87022644,0
03-Oct-2022 12:53:36.660,-1.64699996,11.04199982,1.58899999,0.16850764,5304.75,145.89877319,0,68,26,144.44796753,-0.87022644,0
03-Oct-2022 12:53:36.760,-1.64699996,11.04199982,1.58899999,0.16850764,5314,145.89877319,0,68,26,144.44796753,-7.10684919,0
03-Oct-2022 12:53:36.860,-1.64699996,11.04199982,1.58899999,0.16850764,5314,145.89877319,0,68,31.5,144.44796753,-7.10684919,0
03-Oct-2022 12:53:36.961,-1.64699996,11.04199982,1.58899999,0.16850764,5303,145.89877319,0,68,31.5,144.44796753,-9.28241539,0
03-Oct-2022 12:53:37.061,-1.64699996,11.04199982,1.58899999,0.16850764,5303,145.89877319,0,68,38.5,144.44796753,-10.5877552,0
03-Oct-2022 12:53:37.161,-1.64699996,11.04199982,1.58899999,0.16850764,5285.5,145.89877319,0,69.8,38.5,144.44796753,-10.5877552,0
03-Oct-2022 12:53:37.261,-1.64699996,11.04199982,1.58899999,0.16850764,5285.5,145.89877319,0,69.8,44.5,144.44796753,-11.16790581,0
03-Oct-2022 12:53:37.361,-1.64699996,11.04199982,1.58899999,0.16850764,5247.75,145.89877319,0,69.8,34.5,144.44796753,-11.16790581,0
03-Oct-2022 12:53:37.461,-1.64699996,11.04199982,1.58899999,0.16850764,5241.5,145.89877319,0,69.8,34.5,144.44796753,-11.02286816,0
03-Oct-2022 12:53:37.561,-1.64699996,11.04199982,1.58899999,0.16850764,5241.5,145.89877319,0,69.8,29,144.44796753,-11.02286816,0
03-Oct-2022 12:53:37.661,-1.64699996,11.04199982,1.58899999,0.16850764,5231,145.89877319,0,69.8,22.5,144.44796753,-10.73279285,0
03-Oct-2022 12:53:37.761,-1.64699996,11.04199982,1.58899999,0.16850764,5220.5,145.89877319,0,69.8,22.5,144.44796753,-10.87783051,0
03-Oct-2022 12:53:37.861,-1.64699996,11.04199982,1.58899999,0.16850764,5220.5,145.89877319,0,69.8,22,144.44796753,-10.87783051,0
03-Oct-2022 12:53:37.961,-1.64699996,11.04199982,1.58899999,0.16850764,5205.75,145.89877319,0,69.8,20.5,144.44796753,-10.73279285,0
03-Oct-2022 12:53:38.061,-1.64699996,11.04199982,1.58899999,0.16850764,5205.75,145.89877319,0,69.8,20.5,144.44796753,-11.02286816,0
03-Oct-2022 12:53:38.160,-1.64699996,11.04199982,1.58899999,0.16850764,5178.25,145.89877319,0,69.8,20,144.44796753,-11.02286816,0
03-Oct-2022 12:53:38.261,-1.64699996,11.04199982,1.58899999,0.16850764,5150.5,145.89877319,0,69.8,20,144.44796753,-10.5877552,0
03-Oct-2022 12:53:38.361,-1.64699996,11.04199982,1.58899999,0.16850764,5150.5,145.89877319,0,69.8,20,144.44796753,-10.73279285,0
03-Oct-2022 12:53:38.460,-1.64699996,11.04199982,1.58899999,0.16850764,5140.75,145.89877319,0,69.8,20,144.44796753,-10.73279285,0
03-Oct-2022 12:53:38.561,-1.64699996,11.04199982,1.58899999,0.16850764,5140.75,145.89877319,0,69.8,20,144.44796753,-10.73279285,0
03-Oct-2022 12:53:38.660,-1.64699996,11.04199982,1.58899999,0.16850764,5116.25,145.89877319,0,69.8,20,144.44796753,-10.73279285,0
03-Oct-2022 12:53:38.760,-1.64699996,11.04199982,1.58899999,0.16850764,5091.5,145.89877319,0,69.8,20,144.44796753,-10.87783051,0
03-Oct-2022 12:53:38.861,-1.64699996,11.04199982,1.58899999,0.16850764,5091.5,145.89877319,0,69.8,20,144.44796753,-10.73279285,0
03-Oct-2022 12:53:38.961,-1.64699996,11.04199982,1.58899999,0.16850764,5067,145.89877319,0,69.8,19.5,144.44796753,-10.73279285,0
03-Oct-2022 12:53:39.061,-1.64699996,11.04199982,1.58899999,0.16850764,5067,145.89877319,0,69.8,19.5,144.44796753,-10.87783051,0
03-Oct-2022 12:53:39.160,-1.64699996,11.04199982,1.58899999,0.16850764,5051,145.89877319,0,69.8,19.5,144.44796753,-10.87783051,0
03-Oct-2022 12:53:39.260,-1.64699996,11.04199982,1.58899999,0.16850764,5029.25,145.89877319,0,69.8,19.5,144.44796753,-11.02286816,0
03-Oct-2022 12:53:39.361,-1.64699996,11.04199982,1.58899999,0.16850764,5029.25,145.89877319,0,69.8,19.5,144.44796753,-11.31294346,0
03-Oct-2022 12:53:39.460,-1.64699996,11.04199982,1.58899999,0.16850764,5007,145.89877319,0,69.8,23.5,144.44796753,-11.31294346,0
03-Oct-2022 12:53:39.561,-1.64699996,11.04199982,1.58899999,0.16850764,4995.75,145.89877319,0,69.8,23.5,144.44796753,-11.60301876,0
03-Oct-2022 12:53:39.661,-1.64699996,11.04199982,1.58899999,0.16850764,4995.75,145.89877319,0,69.8,24.5,144.44796753,-11.60301876,2.34375
03-Oct-2022 12:53:39.761,-1.64699996,11.04199982,1.58899999,0.16850764,4980.75,-,0,68,24.5,-,-12.03813267,2.34375
03-Oct-2022 12:53:39.861,-1.64699996,11.04199982,1.58899999,0.16850764,4980.75,-,0,68,28,-,-11.89309406,7.03125
03-Oct-2022 12:53:39.961,-1.64699996,11.04199982,1.58899999,0.16850764,4941,-,0,68,27.5,-,-11.89309406,7.03125
03-Oct-2022 12:53:40.061,-1.64699996,11.04199982,1.58899999,0.16850764,4926,-,0,68,27.5,-,-11.74805641,0
03-Oct-2022 12:53:40.161,-1.64699996,11.04199982,1.58899999,0.16850764,4926,-,0,68,27.5,-,-11.60301876,0
03-Oct-2022 12:53:40.261,-1.64699996,11.04199982,1.58899999,0.16850764,4911.75,-,0,68,27,-,-11.60301876,0
03-Oct-2022 12:53:40.363,-1.64699996,11.04199982,1.58899999,0.16850764,4880,-,0,68,27,-,-11.74805641,0
03-Oct-2022 12:53:40.461,-1.64699996,11.04199982,1.58899999,0.16850764,4880,-,0,68,26.5,-,-11.74805641,11.71875
03-Oct-2022 12:53:40.560,-1.64699996,11.04199982,1.58899999,0.16850764,4877,-,0,68,26.5,-,-12.03813267,11.71875
